Location: Ladrillo (historical)
(32.8195°N, 117.2231°W)
Time: 19:26:26
(UTC+00:00)

SR - Visible Passes

Search period start: 28 February 2021 00:00
Search period end: 10 March 2021 00:00
Orbit: 573 x 882 km, 66.7° (Epoch: 28 February)

Date Brightness Start Highest point End Pass type
(mag) Time Alt. Az. Time Alt. Az. Time Alt. Az.
28 Feb ? 03:20:30 10° SSW 03:25:24 85° WNW 03:29:48 16° NNE visible
28 Feb ? 05:07:01 10° WNW 05:08:25 11° NW 05:09:23 10° NW visible
28 Feb ? 12:05:58 10° N 12:11:10 30° NE 12:16:12 10° ESE visible
28 Feb ? 13:47:56 10° NW 13:53:16 36° WSW 13:58:23 10° S visible
01 Mar ? 02:31:11 10° S 02:35:47 42° ESE 02:40:49 10° NE visible
01 Mar ? 04:14:12 10° WSW 04:18:05 21° NW 04:22:12 10° N visible
01 Mar ? 11:17:19 10° NNE 11:20:57 16° NE 11:24:32 10° E visible
01 Mar ? 12:57:44 10° NNW 13:03:41 75° WSW 13:09:21 10° SSE visible
02 Mar ? 03:23:14 10° SW 03:27:58 43° WNW 03:33:10 10° NNE visible
02 Mar ? 12:08:03 10° NNW 12:13:53 55° ENE 12:19:28 10° SE visible
02 Mar ? 13:51:34 10° WNW 13:55:27 18° WSW 13:59:13 10° SW visible
03 Mar ? 02:33:11 10° SSW 02:38:07 88° ESE 02:43:35 10° NNE visible
03 Mar ? 04:19:08 10° WNW 04:21:04 12° NW 04:23:04 10° NNW visible
03 Mar ? 11:20:58 19° NNE 11:23:52 29° NE 11:28:47 10° ESE visible
03 Mar ? 13:00:37 10° NW 13:06:02 38° WSW 13:11:13 10° S visible
04 Mar ? 03:26:43 10° WSW 03:30:45 23° NW 03:35:04 10° N visible
04 Mar ? 10:34:52 15° ENE 10:34:52 15° ENE 10:36:58 10° E visible
04 Mar ? 12:14:27 44° NW 12:16:25 80° WSW 12:22:05 10° SSE visible
05 Mar ? 02:35:52 10° SW 02:40:41 46° WNW 02:45:57 10° NNE visible
05 Mar ? 11:28:31 37° ESE 11:28:31 37° ESE 11:32:08 10° SE visible
05 Mar ? 13:08:05 20° WSW 13:08:13 20° WSW 13:12:11 10° SSW visible
06 Mar ? 03:31:22 10° WNW 03:33:43 13° NW 03:36:09 10° NNW visible
06 Mar ? 12:22:06 21° SSW 12:22:06 21° SSW 12:24:02 10° S visible
07 Mar ? 02:39:14 10° WSW 02:43:26 25° NW 02:47:55 10° N visible
09 Mar ? 02:43:41 10° WNW 02:46:22 14° NW 02:49:10 10° NNW visible
